Regional Weather Roundup
Issued by NWS

Home | Current Version | Previous Version | Graphics & Text | Print | Product List | Glossary On
Versions: 1 2 3 4 5 6 7 8 9 10 11 12 13 14 15 16 17 18 19 20 21 22 23 24 25 26 27 28 29 30 31 32 33 34 35 36 37 38 39 40 41 42 43 44 45 46 47 48 49 50
000
ASUS43 KFSD 230702
RWRSD

WEATHER ROUNDUP FOR SOUTH DAKOTA
NATIONAL WEATHER SERVICE SIOUX FALLS SD
200 AM CDT TUE SEP 23 2014

NOTE: "FAIR" INDICATES FEW OR NO CLOUDS BELOW 12,000 FEET WITH NO
SIGNIFICANT WEATHER AND/OR OBSTRUCTIONS TO VISIBILITY.


SDZ001>005-009-010-012>017-230800-
NORTHWEST AND NORTH CENTRAL SOUTH DAKOTA

CITY           SKY/WX    TMP DP  RH WIND       PRES   REMARKS
FAITH            N/A     63  57  81 S12       29.90S
MOBRIDGE       CLEAR     63  55  75 S15       29.93R
$$

SDZ012>016-024>037-041>051-057-063-072>074-230800-
SOUTHWEST AND SOUTH CENTRAL SOUTH DAKOTA

CITY           SKY/WX    TMP DP  RH WIND       PRES   REMARKS
RAPID CTY ARPT MOCLDY    58  54  86 SE7       29.93S
PIERRE         CLOUDY    61  55  81 SE12      29.96F
CUSTER         PTCLDY    52  48  86 W3        30.04S
ELLSWORTH AFB  MOCLDY    61  55  80 S5        29.92S
PHILIP         CLOUDY    60  54  80 S8G18     29.92F
PINE RIDGE     CLEAR     59  51  75 S15G28    29.96F
WINNER         LGT RAIN  61  56  83 S14       30.03F
$$

SDZ004>011-016>023-039-040-230800-
NORTHEAST SOUTH DAKOTA

CITY           SKY/WX    TMP DP  RH WIND       PRES   REMARKS
ABERDEEN       PTCLDY    60  50  69 S13       30.02S
WATERTOWN      CLEAR     54  49  83 S10       30.08S
SISSETON         N/A     51  49  92 SE8       30.05S
$$

SDZ017-020-022-023-036>040-048>070-230800-
SOUTHEAST SOUTH DAKOTA

CITY           SKY/WX    TMP DP  RH WIND       PRES   REMARKS
SIOUX FALLS    PTCLDY    60  49  66 S12       30.13S
HURON          MOCLDY    63  51  65 S8        30.05S
CHAMBERLAIN    CLOUDY    62  56  80 S9        30.04S
MITCHELL       CLOUDY    64  53  67 S10       30.07F
YANKTON        CLOUDY    59  50  72 E5        30.12S
$$

ABBREVIATIONS USED IN REMARKS
   TC - TEMPERATURE IN CELSIUS
  WCI - WIND CHILL INDEX
   HX - HEAT INDEX
  VSB - VISIBILITY




USA.gov is the U.S. government's official web portal to all federal, state and local government web resources and services.